Racine, WI

3:44 AM CDT on April 26, 2018 (GMT -0500)
Batten

Weather History for KRAC - March, 2014

Change the Weather History Date:

Wednesday, March 12, 2014

  Actual Average Record
Temperature  
Mean Temperature 25 °F -  
Max Temperature 33 °F 39 °F 67 °F (1990)
Min Temperature 16 °F 26 °F 4 °F (1984)
Degree Days  
Heating Degree Days 40    
Moisture  
Dew Point 13 °F    
Average Humidity 63    
Maximum Humidity 82    
Minimum Humidity 48    
Precipitation  
Precipitation 0.00 in - - ()
Sea Level Pressure  
Sea Level Pressure 29.97 in    
Wind  
Wind Speed 20 mph (North)    
Max Wind Speed 28 mph    
Max Gust Speed 43 mph    
Visibility 10 miles    
Events Snow    
Averages and records for this station are not official NWS values.
T = Trace of Precipitation, MM = Missing Value Source: NWS Daily Summary

Daily Weather History Graph

Daily Weather History Graph

Search for Another Location

Airport or City:

Astronomy

Mar. 12, 2014 Rise Set
Actual Time 7:08 AM CDT 6:54 PM CDT
Civil Twilight 6:40 AM CDT 7:22 PM CDT
Nautical Twilight 6:07 AM CDT 7:55 PM CDT
Astronomical Twilight 5:34 AM CDT 8:28 PM CDT
Moon 3:20 PM CDT (3/12) 4:44 AM CDT (3/12)
Length of Visible Light 12h 42m
Length of Day
11h 45m
Waxing Gibbous, 85% of the Moon is Illuminated
Mar 12
Waxing Gibbous
Mar 16
Full
Mar 23
Last Quarter
Mar 30
New
Apr 7
First Quarter

Hourly Weather History & Observations

Time (CDT) Temp. Windchill Dew Point Humidity Pressure Visibility Wind Dir Wind Speed Gust Speed Precip Events Conditions
12:53 AM 33.1 °F 21.5 °F 28.0 °F 82% 29.78 in 8.0 mi NNE 19.6 mph - N/A   Overcast
1:53 AM 33.1 °F 21.9 °F 26.1 °F 75% 29.79 in 10.0 mi North 18.4 mph - N/A   Overcast
2:53 AM 32.0 °F 19.2 °F 25.0 °F 75% 29.80 in 7.0 mi NNE 23.0 mph 29.9 mph 0.00 in Snow Light Snow
3:53 AM 30.9 °F 17.5 °F 21.0 °F 67% 29.79 in 10.0 mi NNE 24.2 mph 32.2 mph 0.00 in   Overcast
4:53 AM 30.0 °F 16.0 °F 23.0 °F 75% 29.81 in 10.0 mi NNE 25.3 mph 34.5 mph N/A   Overcast
5:53 AM 30.0 °F 15.4 °F 21.9 °F 72% 29.84 in 10.0 mi NNE 27.6 mph 35.7 mph N/A   Mostly Cloudy
6:05 AM 28.9 °F 16.5 °F 21.9 °F 75% 29.82 in 10.0 mi NNE 18.4 mph 35.7 mph N/A   Mostly Cloudy
6:53 AM 28.0 °F 14.3 °F 21.0 °F 75% 29.85 in 10.0 mi NNE 21.9 mph 38.0 mph N/A   Mostly Cloudy
7:53 AM 27.0 °F 12.2 °F 18.0 °F 69% 29.88 in 10.0 mi NNE 24.2 mph 39.1 mph N/A   Overcast
8:53 AM 25.0 °F 9.5 °F 18.0 °F 75% 29.93 in 10.0 mi North 24.2 mph 42.6 mph N/A   Overcast
9:53 AM 23.0 °F 6.0 °F 15.1 °F 72% 29.94 in 10.0 mi North 27.6 mph 40.3 mph N/A   Overcast
10:53 AM 21.9 °F 5.1 °F 12.9 °F 68% 29.97 in 10.0 mi North 25.3 mph 34.5 mph N/A   Mostly Cloudy
11:53 AM 21.0 °F 3.9 °F 10.9 °F 65% 29.99 in 10.0 mi North 25.3 mph 34.5 mph N/A   Overcast
12:24 PM 21.9 °F 4.8 °F 9.0 °F 58% 29.97 in 10.0 mi North 26.5 mph 36.8 mph N/A   Scattered Clouds
12:53 PM 21.9 °F 6.2 °F 9.0 °F 58% 30.01 in 10.0 mi North 21.9 mph 36.8 mph N/A   Clear
1:53 PM 23.0 °F 8.0 °F 10.0 °F 58% 30.01 in 10.0 mi North 20.7 mph 28.8 mph N/A   Clear
2:53 PM 23.0 °F 8.0 °F 6.1 °F 48% 30.02 in 10.0 mi North 20.7 mph 31.1 mph N/A   Clear
3:53 PM 23.0 °F 8.7 °F 6.1 °F 48% 30.05 in 10.0 mi North 18.4 mph 27.6 mph N/A   Clear
4:53 PM 21.9 °F 7.3 °F 6.1 °F 51% 30.07 in 10.0 mi North 18.4 mph 25.3 mph N/A   Clear
5:53 PM 21.0 °F 8.6 °F 3.9 °F 48% 30.10 in 10.0 mi NNE 12.7 mph 23.0 mph N/A   Clear
6:53 PM 19.9 °F 8.6 °F 3.9 °F 50% 30.12 in 10.0 mi North 10.4 mph 18.4 mph N/A   Clear
7:53 PM 19.0 °F 8.2 °F 3.9 °F 52% 30.14 in 10.0 mi North 9.2 mph - N/A   Clear
8:53 PM 19.0 °F 10.0 °F 3.9 °F 52% 30.14 in 10.0 mi North 6.9 mph - N/A   Clear
9:53 PM 18.0 °F 9.8 °F 3.9 °F 54% 30.15 in 10.0 mi North 5.8 mph - N/A   Clear
10:53 PM 17.1 °F 10.0 °F 3.9 °F 56% 30.15 in 10.0 mi West 4.6 mph - N/A   Clear
11:53 PM 16.0 °F 8.8 °F 5.0 °F 62% 30.15 in 10.0 mi WNW 4.6 mph - N/A   Clear